SCP
-0 -0 -0 -0 -0 -0 -0 -0 0 0 0 0 -0 -0 0 0 0 -0 0 0 -0 -0 -0 -0 -0 -0 -0 -0 -0 -0 -0 -0 -0 -0 -0 -0 0 0 -0 -0 -0 -0 -0
-0 -0 -0 -0 -0 -0 -0 -0 -0 -0 0 0 0 0 0 0 0 0 0 -0 -0 -0 -0 -0 -0 -0 -0 -0 -0 -0 -0 -0 -0 -0 -0 -0 -0 -0 -0 -0 -0 -0 -0
-0 -0 -0 -0 -0 -0 -0 -0 -0 -0 -0 -0 -0 0 0 0 0 0 0 0 0 0 -0 -0 0 -0 -0 -0 -0 -0 -0 -0 -0 -0 -0 -0 -0 -0 -0 -0 -0 -0 -0
-0 -0 -0 -0 -0 -0 -0 -0 -0 -0 -0 -0 -0 -0 0 0 0 0 0 0 0 0 0 0 0 0 -0 -0 -0 -0 -0 -0 -0 -0 -0 -0 -0 -0 -0 -0 -0 -0 -0
-0 -0 0 -0 -0 -0 -0 -0 -0 -0 -0 -0 -0 -0 0 -0 0 0 0 0 0 0 0 -0 0 0 -0 -0 -0 -0 -0 -0 -0 -0 -0 -0 -0 -0 -0 -0 -0 -0 -0
-0 0 0 -0 -0 -0 -0 -0 -0 -0 -0 -0 0 -0 0 0 0 0 0 0 -0 -0 0 0 0 -0 -0 -0 -0 -0 -0 -0 -0 -0 -0 -0 -0 -0 -0 -0 -0 -0 -0
-0 -0 0 0 0 0 0 0 0 0 0 0 0 0 0 0 0 0 0 0 0 0 0 0 0 -0 -0 -0 -0 -0 -0 -0 0 -0 -0 -0 -0 -0 -0 -0 -0 -0 -0
-0 -0 0 0 0 0 0 0 0 0 0 0 0 0 -0 0 0 0 0 0 0 0 0 0 0 0 0 -0 -0 -0 -0 -0 0 0 0 -0 -0 -0 -0 -0 -0 -0 -0
-0 0 0 0 -0 0 0 0 0 0 0 0 0 0 0 0 0 0 0 0 0 0 0 0 0 0 0 0 0 0 0 -0 0 0 0 0 0 0 0 0 0 0 0
0 0 0 0 0 0 0 0 0 0 0 0 0 0 0 0 0 0 0 0 0 0 0 0 0 0 0 0 0 0 0 0 0 0 0 0 0 0 0 0 0 0 0
0 0 0 0 0 0 0 0 0 0 0 0 0 0 0 0 0 0 0 0 0 0 0 0 0 0 0 0 0 0 0 0 0 0 0 0 0 0 0 0 0 0 0
0 0 0 0 0 0 0 0 0 0 0 0 0 0 0 0 0 0 0 0 0 0 0 0 0 0 0 0 0 0 0 0 0 0 0 0 0 0 0 0 0 0 0
0 0 0 0 0 0 0 0 0 0 0 0 0 0 0 0 0 0 0 0 0 0 0 0 0 0 0 0 0 0 0 0 0 0 0 0 0 0 0 0 0 0 0
0 0 0 0 0 0 0 0 0 0 0 0 0 0 0 0 0 0 0 0 0 0 0 0 0 0 0 0 0 0 0 0 0 0 0 0 0 0 0 0 0 0 0
0 0 0 0 0 0 0 0 0 0 0 0 0 0 0 0 0 0 0 0 0 0 0 0 0 0 0 0 0 0 0 0 0 0 0 0 0 0 0 0 0 0 0
0 0 0 0 0 0 0 0 0 0 0 0 0 0 0 0 0 0 0 0 0 0 0 0 0 0 0 0 0 0 0 0 0 0 0 0 0 0 0 0 0 0 0
0 0 0 0 0 0 0 0 0 0 0 0 0 0 0 0 0 0 0 0 0 0 0 0 0 0 0 0 0 0 0 0 0 0 0 0 0 0 0 0 0 0 0
0 0 0 0 0 0 0 0 0 0 0 0 0 0 0 0 0 0 0 0 0 0 0 0 0 0 0 0 0 0 0 0 0 0 0 0 0 0 0 0 0 0 0
0 0 0 0 0 0 0 0 0 0 0 0 0 0 0 0 0 0 0 0 0 0 0 0 0 0 0 0 0 0 0 0 0 0 0 0 0 0 0 0 0 0 0
0 0 0 0 0 0 0 0 0 0 0 0 0 0 0 0 0 0 0 0 0 0 0 0 0 0 0 0 0 0 0 0 0 0 0 0 0 0 0 0 0 0 0
0 0 0 0 0 0 0 0 0 0 0 0 0 0 0 0 0 0 0 0 0 0 0 0 0 0 0 0 0 0 0 0 0 0 0 0 0 0 0 0 0 0 0
0 0 0 0 0 0 0 0 0 0 0 0 0 0 0 0 0 0 0 0 0 0 0 0 0 0 0 0 0 0 0 0 0 0 0 0 0 0 0 0 0 0 0
0 0 0 0 0 0 0 0 0 0 0 0 0 0 0 0 0 0 0 0 0 0 0 0 0 0 0 0 0 0 0 0 0 0 0 0 0 0 0 0 0 0 0
0 -0 0 0 0 0 0 0 0 0 0 0 0 0 0 0 0 0 0 0 0 0 0 0 0 0 0 0 0 0 0 0 0 0 0 0 0 0 0 0 0 0 0
0 0 -0 0 0 0 0 0 0 0 0 0 0 0 0 0 0 0 0 0 0 0 0 0 0 0 0 0 0 0 0 0 0 0 0 0 0 0 0 0 0 0 0
-0 -0 -0 -0 -0 0 0 0 0 0 0 0 0 0 0 0 0 0 0 0 0 0 0 0 0 0 0 0 0 0 0 0 0 0 0 0 0 0 0 0 0 0 0
Wind_Speed_500mb
54 46 43 40 39 35 31 31 29 29 28 26 23 22 20 19 16 16 15 13 11 12 13 13 13 11 5 8 8 4 1 2 5 6 7 10 11 12 12 14 15 15 16
47 46 46 43 38 35 34 32 30 29 27 27 27 25 22 22 21 18 16 15 10 12 15 18 11 10 9 10 8 4 4 3 2 1 3 6 11 13 9 7 10 13 10
40 44 44 43 42 36 33 34 30 29 27 25 23 24 27 27 22 21 19 17 17 15 13 6 6 7 9 10 7 6 4 5 3 3 2 1 6 6 4 3 7 9 6
32 40 41 41 42 42 36 34 34 27 27 25 25 28 25 23 23 19 17 19 20 21 17 9 10 11 12 13 11 9 9 8 7 6 5 5 7 4 6 9 10 8 6
33 38 39 38 40 45 44 38 33 34 28 30 28 26 21 18 15 16 18 19 22 20 17 16 14 14 15 15 14 13 15 14 12 11 10 10 9 10 9 10 11 10 7
32 39 41 38 37 40 42 40 35 35 35 35 29 24 22 22 20 21 21 22 21 19 17 16 15 14 13 13 13 13 16 15 16 16 16 15 14 12 11 9 10 12 10
31 35 40 41 39 37 39 41 44 43 42 34 29 23 23 25 25 23 23 21 20 18 15 13 9 6 6 5 5 6 9 11 12 14 19 21 21 23 21 19 17 14 15
30 34 39 44 43 43 41 44 43 47 43 33 28 25 27 26 24 23 22 21 18 14 11 8 6 5 5 4 5 5 5 6 7 10 16 20 24 27 28 26 23 20 19
31 35 39 46 49 45 46 44 45 46 40 36 31 27 27 25 24 23 21 19 16 13 10 8 7 5 4 4 5 6 6 7 8 8 11 16 21 28 28 28 28 28 29
36 37 40 45 50 47 45 46 47 45 42 36 32 29 27 25 24 23 22 20 17 14 11 8 6 5 5 5 5 6 6 7 8 9 11 13 17 22 26 26 29 30 32
41 42 44 48 51 49 48 49 48 47 43 38 36 34 31 28 26 26 24 22 19 17 15 12 10 8 7 6 6 6 7 8 9 10 12 14 16 19 22 25 27 29 31
45 46 47 50 52 53 53 53 51 50 47 44 42 38 35 33 32 32 29 27 24 21 18 14 11 10 8 7 6 6 7 8 10 11 12 14 17 19 20 20 22 25 27
44 49 52 54 55 58 58 58 57 56 53 51 48 44 42 41 42 39 36 33 28 24 19 15 12 9 8 8 8 8 10 11 12 13 14 14 16 19 20 20 21 24 26
50 48 54 58 59 62 62 64 62 62 60 58 54 50 48 48 48 46 42 40 36 29 24 18 14 11 10 10 11 13 13 14 15 15 15 16 17 18 19 20 23 23 22
57 57 56 59 63 66 67 68 69 69 68 64 61 57 54 54 53 50 48 46 40 35 29 24 20 16 13 13 14 15 16 17 17 19 18 16 17 18 19 20 21 21 19
48 50 57 64 67 69 70 73 73 74 72 71 70 66 63 61 59 57 53 50 46 41 35 30 25 20 17 15 15 15 16 16 17 19 20 18 15 17 18 22 22 18 5
49 49 55 63 71 75 76 75 79 77 77 78 76 73 71 68 68 65 61 58 52 47 43 38 31 26 22 18 17 16 17 17 18 18 19 18 14 14 18 20 20 19 19
61 64 62 62 72 80 84 82 83 83 82 84 82 79 79 77 75 73 69 64 60 55 49 43 36 31 25 21 19 17 17 17 18 16 15 14 14 13 12 15 18 21 31
81 77 74 73 72 77 87 91 91 90 89 89 86 85 85 81 80 78 74 70 68 63 57 51 43 36 30 26 22 19 18 18 17 15 14 14 13 13 14 15 15 17 17
56 56 57 66 77 77 86 95 98 98 96 96 93 92 90 88 85 84 80 76 74 69 64 58 51 43 37 31 25 20 18 18 16 16 14 14 14 14 14 16 16 15 16
42 43 47 55 59 76 87 95 102 106 103 106 102 97 96 93 91 90 88 86 81 76 69 61 55 50 44 38 30 23 19 18 19 21 23 21 19 17 16 15 15 17 18
32 33 36 43 53 62 78 88 98 105 110 110 108 107 102 99 95 95 92 88 84 80 76 71 64 56 52 44 35 26 17 21 26 28 28 27 21 17 15 13 19 21 22
50 36 35 37 44 55 68 84 95 103 103 110 117 113 109 103 100 98 95 92 88 84 81 75 70 64 60 53 45 30 14 17 25 34 36 33 30 27 17 17 19 19 19
68 60 46 44 44 53 63 75 87 96 104 109 108 109 111 107 104 102 99 96 93 90 87 80 73 70 63 58 49 46 42 29 21 18 37 39 37 34 27 20 22 22 21
71 71 67 55 50 53 60 72 81 89 96 100 96 101 107 108 108 106 103 101 99 96 89 86 81 78 72 66 60 52 48 45 44 37 25 33 37 36 33 26 24 23 21
63 67 72 69 54 45 49 59 73 80 86 90 95 98 96 101 109 109 107 106 102 99 96 90 85 83 77 70 65 59 55 52 49 45 45 36 34 34 34 32 27 25 22
Wind_Direction_500mb
188 188 187 184 181 182 181 177 178 178 179 183 187 191 192 195 191 194 193 202 216 226 233 238 241 263 265 250 243 238 114 98 89 85 79 77 83 55 52 58 61 64 61
191 189 191 192 191 191 191 190 186 186 188 191 198 204 203 207 209 210 213 213 199 223 244 251 257 260 275 278 305 323 277 267 311 23 66 73 85 79 69 55 54 58 68
191 194 195 195 197 196 200 197 198 199 202 202 204 212 217 223 224 224 233 231 225 233 262 289 278 282 293 298 305 297 294 296 272 258 246 152 122 133 201 316 348 8 32
186 198 200 198 198 193 200 199 199 204 206 211 215 222 226 233 239 238 228 232 242 250 268 280 265 268 274 277 279 288 285 276 270 264 251 214 196 199 281 294 301 319 337
187 195 199 202 200 198 201 204 200 195 207 214 205 219 228 231 220 225 232 236 248 262 269 272 277 278 274 274 269 265 269 268 265 257 254 248 232 230 259 287 290 283 289
194 194 199 198 199 196 200 201 197 198 200 203 206 217 220 228 233 236 239 243 248 252 259 265 267 266 270 270 272 267 260 258 260 259 256 252 248 240 236 256 286 274 266
205 202 202 200 200 198 187 189 192 197 201 208 221 219 222 228 233 232 229 235 237 242 249 252 250 256 262 282 293 273 272 270 262 255 248 247 244 245 246 245 255 287 272
216 212 207 207 207 206 205 204 203 213 219 225 230 226 228 228 228 226 228 229 230 225 218 223 231 237 245 252 260 270 270 271 264 252 242 243 243 247 252 256 263 271 272
224 220 216 211 215 215 211 212 214 223 230 232 233 231 227 223 221 221 220 213 206 205 207 213 219 231 244 249 243 247 251 257 266 255 252 242 244 250 254 257 259 260 268
226 228 224 221 222 222 219 218 221 226 229 228 229 231 228 224 222 215 206 202 202 201 204 210 227 247 257 263 267 268 260 258 258 264 259 257 251 254 261 260 260 262 265
231 230 228 226 227 226 226 225 226 228 230 227 229 229 225 224 218 213 210 209 208 207 209 212 220 231 247 261 271 278 288 294 292 282 274 268 263 261 264 269 271 271 273
245 240 233 231 230 228 227 229 230 233 232 227 228 229 226 223 216 216 216 215 213 213 216 218 225 232 235 240 256 279 293 297 296 293 284 274 271 269 267 268 272 275 275
260 248 243 237 233 231 230 231 232 234 234 231 230 228 222 220 218 219 219 219 219 219 224 227 233 242 255 275 290 298 306 306 305 300 293 281 269 263 262 262 265 266 273
257 255 247 243 239 237 233 233 234 236 236 235 235 231 227 223 220 220 218 217 219 220 224 228 235 248 270 290 299 306 312 315 315 309 301 288 273 263 260 255 254 261 267
255 252 247 245 244 242 237 237 234 235 235 236 236 235 232 229 227 225 222 221 221 221 222 224 230 241 253 268 284 297 307 313 315 314 309 299 285 272 259 258 256 257 263
263 259 252 246 244 243 241 240 239 238 237 235 235 234 234 232 230 229 228 226 224 223 224 226 230 234 244 257 273 290 301 308 311 310 308 302 288 270 256 249 247 240 174
278 273 261 252 246 243 242 241 240 239 238 237 236 235 234 232 230 229 229 228 227 227 226 227 227 229 235 249 265 279 289 297 303 304 303 296 285 259 245 242 237 229 152
279 278 274 261 250 245 242 241 240 238 237 237 236 236 235 232 229 228 227 226 227 226 226 226 227 228 232 241 255 269 281 290 291 286 278 268 257 251 252 238 230 217 196
283 280 274 264 257 249 244 242 240 240 238 238 236 235 236 233 231 229 228 227 226 225 225 225 226 227 231 237 249 264 276 283 279 271 256 240 228 222 217 219 215 212 226
291 280 272 263 257 252 244 240 239 239 237 238 237 236 235 233 231 230 228 227 227 226 225 225 225 225 227 231 240 252 264 267 265 253 234 219 212 217 224 230 239 245 245
296 284 276 266 260 249 243 239 238 239 237 237 236 236 234 233 232 231 230 228 227 228 230 228 225 223 224 225 229 233 243 248 246 235 222 218 213 213 220 225 234 244 249
327 308 286 278 265 254 243 244 241 241 239 238 237 235 232 231 231 231 231 231 230 228 225 225 226 226 227 225 226 223 226 235 230 221 220 213 214 214 218 243 256 255 257
16 337 311 294 277 265 253 244 240 239 240 241 238 235 233 232 231 231 232 232 232 231 231 230 228 228 229 226 223 218 199 219 215 226 226 225 226 235 234 268 260 259 258
12 4 350 306 282 269 259 248 245 244 244 245 244 241 236 233 232 231 232 232 233 232 231 231 230 230 230 230 227 228 230 230 200 212 222 230 229 225 228 248 255 253 243
7 4 354 341 312 282 264 258 252 247 248 249 249 246 240 234 233 232 233 232 232 232 232 230 229 229 230 231 232 234 233 232 230 225 219 224 228 229 235 249 247 238 225
9 3 357 350 340 312 286 267 261 258 254 251 251 249 247 239 234 233 232 232 232 232 232 231 230 230 230 232 234 236 240 239 237 228 227 226 223 224 232 229 234 225 222
Wind_Speed_850mb
54 46 43 40 39 35 31 31 29 29 28 26 23 22 20 19 16 16 15 13 11 12 13 13 13 11 5 8 8 4 1 2 5 6 7 10 11 12 12 14 15 15 16
47 46 46 43 38 35 34 32 30 29 27 27 27 25 22 22 21 18 16 15 10 12 15 18 11 10 9 10 8 4 4 3 2 1 3 6 11 13 9 7 10 13 10
40 44 44 43 42 36 33 34 30 29 27 25 23 24 27 27 22 21 19 17 17 15 13 6 6 7 9 10 7 6 4 5 3 3 2 1 6 6 4 3 7 9 6
32 40 41 41 42 42 36 34 34 27 27 25 25 28 25 23 23 19 17 19 20 21 17 9 10 11 12 13 11 9 9 8 7 6 5 5 7 4 6 9 10 8 6
33 38 39 38 40 45 44 38 33 34 28 30 28 26 21 18 15 16 18 19 22 20 17 16 14 14 15 15 14 13 15 14 12 11 10 10 9 10 9 10 11 10 7
32 39 41 38 37 40 42 40 35 35 35 35 29 24 22 22 20 21 21 22 21 19 17 16 15 14 13 13 13 13 16 15 16 16 16 15 14 12 11 9 10 12 10
31 35 40 41 39 37 39 41 44 43 42 34 29 23 23 25 25 23 23 21 20 18 15 13 9 6 6 5 5 6 9 11 12 14 19 21 21 23 21 19 17 14 15
30 34 39 44 43 43 41 44 43 47 43 33 28 25 27 26 24 23 22 21 18 14 11 8 6 5 5 4 5 5 5 6 7 10 16 20 24 27 28 26 23 20 19
31 35 39 46 49 45 46 44 45 46 40 36 31 27 27 25 24 23 21 19 16 13 10 8 7 5 4 4 5 6 6 7 8 8 11 16 21 28 28 28 28 28 29
36 37 40 45 50 47 45 46 47 45 42 36 32 29 27 25 24 23 22 20 17 14 11 8 6 5 5 5 5 6 6 7 8 9 11 13 17 22 26 26 29 30 32
41 42 44 48 51 49 48 49 48 47 43 38 36 34 31 28 26 26 24 22 19 17 15 12 10 8 7 6 6 6 7 8 9 10 12 14 16 19 22 25 27 29 31
45 46 47 50 52 53 53 53 51 50 47 44 42 38 35 33 32 32 29 27 24 21 18 14 11 10 8 7 6 6 7 8 10 11 12 14 17 19 20 20 22 25 27
44 49 52 54 55 58 58 58 57 56 53 51 48 44 42 41 42 39 36 33 28 24 19 15 12 9 8 8 8 8 10 11 12 13 14 14 16 19 20 20 21 24 26
50 48 54 58 59 62 62 64 62 62 60 58 54 50 48 48 48 46 42 40 36 29 24 18 14 11 10 10 11 13 13 14 15 15 15 16 17 18 19 20 23 23 22
57 57 56 59 63 66 67 68 69 69 68 64 61 57 54 54 53 50 48 46 40 35 29 24 20 16 13 13 14 15 16 17 17 19 18 16 17 18 19 20 21 21 19
48 50 57 64 67 69 70 73 73 74 72 71 70 66 63 61 59 57 53 50 46 41 35 30 25 20 17 15 15 15 16 16 17 19 20 18 15 17 18 22 22 18 5
49 49 55 63 71 75 76 75 79 77 77 78 76 73 71 68 68 65 61 58 52 47 43 38 31 26 22 18 17 16 17 17 18 18 19 18 14 14 18 20 20 19 19
61 64 62 62 72 80 84 82 83 83 82 84 82 79 79 77 75 73 69 64 60 55 49 43 36 31 25 21 19 17 17 17 18 16 15 14 14 13 12 15 18 21 31
81 77 74 73 72 77 87 91 91 90 89 89 86 85 85 81 80 78 74 70 68 63 57 51 43 36 30 26 22 19 18 18 17 15 14 14 13 13 14 15 15 17 17
56 56 57 66 77 77 86 95 98 98 96 96 93 92 90 88 85 84 80 76 74 69 64 58 51 43 37 31 25 20 18 18 16 16 14 14 14 14 14 16 16 15 16
42 43 47 55 59 76 87 95 102 106 103 106 102 97 96 93 91 90 88 86 81 76 69 61 55 50 44 38 30 23 19 18 19 21 23 21 19 17 16 15 15 17 18
32 33 36 43 53 62 78 88 98 105 110 110 108 107 102 99 95 95 92 88 84 80 76 71 64 56 52 44 35 26 17 21 26 28 28 27 21 17 15 13 19 21 22
50 36 35 37 44 55 68 84 95 103 103 110 117 113 109 103 100 98 95 92 88 84 81 75 70 64 60 53 45 30 14 17 25 34 36 33 30 27 17 17 19 19 19
68 60 46 44 44 53 63 75 87 96 104 109 108 109 111 107 104 102 99 96 93 90 87 80 73 70 63 58 49 46 42 29 21 18 37 39 37 34 27 20 22 22 21
71 71 67 55 50 53 60 72 81 89 96 100 96 101 107 108 108 106 103 101 99 96 89 86 81 78 72 66 60 52 48 45 44 37 25 33 37 36 33 26 24 23 21
63 67 72 69 54 45 49 59 73 80 86 90 95 98 96 101 109 109 107 106 102 99 96 90 85 83 77 70 65 59 55 52 49 45 45 36 34 34 34 32 27 25 22
Wind_Direction_850mb
188 188 187 184 181 182 181 177 178 178 179 183 187 191 192 195 191 194 193 202 216 226 233 238 241 263 265 250 243 238 114 98 89 85 79 77 83 55 52 58 61 64 61
191 189 191 192 191 191 191 190 186 186 188 191 198 204 203 207 209 210 213 213 199 223 244 251 257 260 275 278 305 323 277 267 311 23 66 73 85 79 69 55 54 58 68
191 194 195 195 197 196 200 197 198 199 202 202 204 212 217 223 224 224 233 231 225 233 262 289 278 282 293 298 305 297 294 296 272 258 246 152 122 133 201 316 348 8 32
186 198 200 198 198 193 200 199 199 204 206 211 215 222 226 233 239 238 228 232 242 250 268 280 265 268 274 277 279 288 285 276 270 264 251 214 196 199 281 294 301 319 337
187 195 199 202 200 198 201 204 200 195 207 214 205 219 228 231 220 225 232 236 248 262 269 272 277 278 274 274 269 265 269 268 265 257 254 248 232 230 259 287 290 283 289
194 194 199 198 199 196 200 201 197 198 200 203 206 217 220 228 233 236 239 243 248 252 259 265 267 266 270 270 272 267 260 258 260 259 256 252 248 240 236 256 286 274 266
205 202 202 200 200 198 187 189 192 197 201 208 221 219 222 228 233 232 229 235 237 242 249 252 250 256 262 282 293 273 272 270 262 255 248 247 244 245 246 245 255 287 272
216 212 207 207 207 206 205 204 203 213 219 225 230 226 228 228 228 226 228 229 230 225 218 223 231 237 245 252 260 270 270 271 264 252 242 243 243 247 252 256 263 271 272
224 220 216 211 215 215 211 212 214 223 230 232 233 231 227 223 221 221 220 213 206 205 207 213 219 231 244 249 243 247 251 257 266 255 252 242 244 250 254 257 259 260 268
226 228 224 221 222 222 219 218 221 226 229 228 229 231 228 224 222 215 206 202 202 201 204 210 227 247 257 263 267 268 260 258 258 264 259 257 251 254 261 260 260 262 265
231 230 228 226 227 226 226 225 226 228 230 227 229 229 225 224 218 213 210 209 208 207 209 212 220 231 247 261 271 278 288 294 292 282 274 268 263 261 264 269 271 271 273
245 240 233 231 230 228 227 229 230 233 232 227 228 229 226 223 216 216 216 215 213 213 216 218 225 232 235 240 256 279 293 297 296 293 284 274 271 269 267 268 272 275 275
260 248 243 237 233 231 230 231 232 234 234 231 230 228 222 220 218 219 219 219 219 219 224 227 233 242 255 275 290 298 306 306 305 300 293 281 269 263 262 262 265 266 273
257 255 247 243 239 237 233 233 234 236 236 235 235 231 227 223 220 220 218 217 219 220 224 228 235 248 270 290 299 306 312 315 315 309 301 288 273 263 260 255 254 261 267
255 252 247 245 244 242 237 237 234 235 235 236 236 235 232 229 227 225 222 221 221 221 222 224 230 241 253 268 284 297 307 313 315 314 309 299 285 272 259 258 256 257 263
263 259 252 246 244 243 241 240 239 238 237 235 235 234 234 232 230 229 228 226 224 223 224 226 230 234 244 257 273 290 301 308 311 310 308 302 288 270 256 249 247 240 174
278 273 261 252 246 243 242 241 240 239 238 237 236 235 234 232 230 229 229 228 227 227 226 227 227 229 235 249 265 279 289 297 303 304 303 296 285 259 245 242 237 229 152
279 278 274 261 250 245 242 241 240 238 237 237 236 236 235 232 229 228 227 226 227 226 226 226 227 228 232 241 255 269 281 290 291 286 278 268 257 251 252 238 230 217 196
283 280 274 264 257 249 244 242 240 240 238 238 236 235 236 233 231 229 228 227 226 225 225 225 226 227 231 237 249 264 276 283 279 271 256 240 228 222 217 219 215 212 226
291 280 272 263 257 252 244 240 239 239 237 238 237 236 235 233 231 230 228 227 227 226 225 225 225 225 227 231 240 252 264 267 265 253 234 219 212 217 224 230 239 245 245
296 284 276 266 260 249 243 239 238 239 237 237 236 236 234 233 232 231 230 228 227 228 230 228 225 223 224 225 229 233 243 248 246 235 222 218 213 213 220 225 234 244 249
327 308 286 278 265 254 243 244 241 241 239 238 237 235 232 231 231 231 231 231 230 228 225 225 226 226 227 225 226 223 226 235 230 221 220 213 214 214 218 243 256 255 257
16 337 311 294 277 265 253 244 240 239 240 241 238 235 233 232 231 231 232 232 232 231 231 230 228 228 229 226 223 218 199 219 215 226 226 225 226 235 234 268 260 259 258
12 4 350 306 282 269 259 248 245 244 244 245 244 241 236 233 232 231 232 232 233 232 231 231 230 230 230 230 227 228 230 230 200 212 222 230 229 225 228 248 255 253 243
7 4 354 341 312 282 264 258 252 247 248 249 249 246 240 234 233 232 233 232 232 232 232 230 229 229 230 231 232 234 233 232 230 225 219 224 228 229 235 249 247 238 225
9 3 357 350 340 312 286 267 261 258 254 251 251 249 247 239 234 233 232 232 232 232 232 231 230 230 230 232 234 236 240 239 237 228 227 226 223 224 232 229 234 225 222